TimeBST,TemperatureF,Dew PointF,Humidity,Sea Level PressureIn,VisibilityMPH,Wind Direction,Wind SpeedMPH,Gust SpeedMPH,PrecipitationIn,Events,Conditions,WindDirDegrees,DateUTC
12:20 AM,57.2,57.2,100,30.06,6.2,Variable,2.3,-,N/A,,Overcast,0,2013-09-11 23:20:00
12:50 AM,59.0,57.2,94,30.06,6.2,West,4.6,-,N/A,,Overcast,260,2013-09-11 23:50:00
1:20 AM,59.0,57.2,94,30.06,6.2,West,4.6,-,N/A,,Overcast,270,2013-09-12 00:20:00
1:50 AM,59.0,57.2,94,30.06,6.2,WSW,4.6,-,N/A,,Overcast,250,2013-09-12 00:50:00
2:20 AM,57.2,57.2,100,30.06,6.2,West,4.6,-,N/A,,Overcast,260,2013-09-12 01:20:00
2:50 AM,55.4,53.6,94,30.06,6.2,West,4.6,-,N/A,,Scattered Clouds,260,2013-09-12 01:50:00
3:20 AM,53.6,51.8,94,30.04,-9999.0,WSW,5.8,-,N/A,,Clear,250,2013-09-12 02:20:00
3:50 AM,55.4,53.6,94,30.04,6.2,WSW,6.9,-,N/A,,Mostly Cloudy,250,2013-09-12 02:50:00
4:20 AM,55.4,53.6,94,30.04,6.2,West,5.8,-,N/A,,Overcast,270,2013-09-12 03:20:00
4:50 AM,55.4,53.6,94,30.04,6.2,Calm,Calm,-,N/A,,Overcast,0,2013-09-12 03:50:00
5:20 AM,55.4,53.6,94,30.04,6.2,West,4.6,-,N/A,,Overcast,270,2013-09-12 04:20:00
5:50 AM,55.4,53.6,94,30.04,6.2,WSW,6.9,-,N/A,,Overcast,240,2013-09-12 04:50:00
6:20 AM,55.4,53.6,94,30.04,6.2,WSW,8.1,-,N/A,,Overcast,240,2013-09-12 05:20:00
6:50 AM,55.4,51.8,88,30.04,6.2,WSW,6.9,-,N/A,,Overcast,250,2013-09-12 05:50:00
7:20 AM,55.4,51.8,88,30.04,6.2,West,4.6,-,N/A,,Mostly Cloudy,270,2013-09-12 06:20:00
7:50 AM,55.4,51.8,88,30.04,6.2,WSW,5.8,-,N/A,,Mostly Cloudy,250,2013-09-12 06:50:00
8:20 AM,57.2,53.6,88,30.04,6.2,WSW,6.9,-,N/A,,Scattered Clouds,250,2013-09-12 07:20:00
8:50 AM,57.2,53.6,88,30.04,6.2,SW,8.1,-,N/A,,Mostly Cloudy,230,2013-09-12 07:50:00
9:20 AM,57.2,53.6,88,30.04,6.2,WSW,9.2,-,N/A,,Mostly Cloudy,240,2013-09-12 08:20:00
9:50 AM,59.0,53.6,82,30.01,6.2,WSW,10.4,-,N/A,,Scattered Clouds,250,2013-09-12 08:50:00
10:20 AM,59.0,53.6,82,30.01,6.2,SW,11.5,-,N/A,,Scattered Clouds,230,2013-09-12 09:20:00
10:50 AM,60.8,53.6,77,30.01,6.2,WSW,10.4,-,N/A,,Partly Cloudy,240,2013-09-12 09:50:00
11:20 AM,60.8,53.6,77,30.01,6.2,WSW,9.2,-,N/A,,Partly Cloudy,240,2013-09-12 10:20:00
11:50 AM,62.6,53.6,72,29.98,6.2,WSW,10.4,-,N/A,,Partly Cloudy,250,2013-09-12 10:50:00
12:20 PM,62.6,53.6,72,29.98,6.2,West,8.1,-,N/A,,Partly Cloudy,270,2013-09-12 11:20:00
12:50 PM,66.2,53.6,64,29.98,6.2,WSW,11.5,-,N/A,,Partly Cloudy,240,2013-09-12 11:50:00
1:20 PM,68.0,53.6,60,29.95,6.2,WSW,11.5,-,N/A,,Unknown,240,2013-09-12 12:20:00
1:50 PM,68.0,53.6,60,29.95,6.2,WSW,12.7,-,N/A,,Partly Cloudy,240,2013-09-12 12:50:00
2:20 PM,66.2,53.6,64,29.92,6.2,SW,13.8,-,N/A,,Mostly Cloudy,230,2013-09-12 13:20:00
2:50 PM,66.2,57.2,73,29.92,6.2,SW,12.7,-,N/A,,Mostly Cloudy,220,2013-09-12 13:50:00
3:20 PM,64.4,57.2,77,29.92,6.2,SSW,16.1,-,N/A,,Mostly Cloudy,210,2013-09-12 14:20:00
3:50 PM,64.4,57.2,77,29.92,6.2,SSW,13.8,-,N/A,Rain,Light Rain Showers,210,2013-09-12 14:50:00
4:20 PM,64.4,57.2,77,29.89,6.2,SW,17.3,-,N/A,,Mostly Cloudy,220,2013-09-12 15:20:00
4:50 PM,62.6,57.2,82,29.89,6.2,SW,11.5,-,N/A,Rain,Light Rain,220,2013-09-12 15:50:00
5:20 PM,62.6,57.2,82,29.89,6.2,WSW,13.8,-,N/A,Rain,Light Rain,240,2013-09-12 16:20:00
5:50 PM,60.8,59.0,94,29.86,6.2,SW,12.7,-,N/A,Rain,Light Rain,230,2013-09-12 16:50:00
6:20 PM,60.8,59.0,94,29.86,6.2,SW,12.7,-,N/A,Rain,Light Rain,230,2013-09-12 17:20:00
6:50 PM,60.8,59.0,94,29.86,6.2,WSW,11.5,-,N/A,,Mostly Cloudy,240,2013-09-12 17:50:00
7:20 PM,60.8,59.0,94,29.86,4.3,WSW,12.7,-,N/A,Rain,Light Rain,240,2013-09-12 18:20:00
7:50 PM,60.8,59.0,94,29.89,6.2,WSW,9.2,-,N/A,,Overcast,250,2013-09-12 18:50:00
8:20 PM,60.8,59.0,94,29.89,6.2,WSW,13.8,-,N/A,,Mostly Cloudy,240,2013-09-12 19:20:00
8:50 PM,60.8,59.0,94,29.89,6.2,West,11.5,-,N/A,,Overcast,260,2013-09-12 19:50:00
9:20 PM,60.8,57.2,88,29.92,6.2,West,11.5,-,N/A,,Overcast,260,2013-09-12 20:20:00
9:50 PM,59.0,57.2,94,29.92,6.2,WSW,12.7,-,N/A,,Mostly Cloudy,250,2013-09-12 20:50:00
10:20 PM,59.0,57.2,94,29.92,6.2,WSW,13.8,-,N/A,,Mostly Cloudy,250,2013-09-12 21:20:00
10:50 PM,59.0,55.4,88,29.95,6.2,West,12.7,-,N/A,,Mostly Cloudy,260,2013-09-12 21:50:00
11:20 PM,57.2,53.6,88,29.95,6.2,WSW,11.5,-,N/A,,Scattered Clouds,250,2013-09-12 22:20:00
11:50 PM,55.4,51.8,88,29.95,6.2,WSW,9.2,-,N/A,,Scattered Clouds,240,2013-09-12 22:50:00